Simultaneous Nadir Overpasses (SNOs) Predictions

Prediction of SNOs between METOP-B and TERRA Satellite Orbit:

Table of predicted SNOs for the next 14.0 days since TLE Epoch: 8/22/2016
Index Date (METOP-B) Time (METOP-B) Lat,Lon (METOP-B) SZA (METOP-B ) Date (TERRA) Time (TERRA) Lat,Lon (TERRA) SZA (TERRA ) Distance(km) Time Diff (sec)
1 08/24/2016 04:37:10 -81.27, -22.78 106.98 08/24/2016 04:37:47 -81.27, -22.70 106.96 1.36 37
2 08/24/2016 05:27:49 81.28, 145.07 73.10 08/24/2016 05:27:13 81.27, 144.99 73.07 1.48 36
3 08/27/2016 00:11:33 -81.27, 43.83 105.96 08/27/2016 00:11:59 -81.27, 43.71 105.97 2.12 26
4 08/27/2016 01:02:13 81.28,-148.73 74.07 08/27/2016 01:01:25 81.27,-148.61 74.05 2.09 48
5 08/29/2016 19:45:58 -81.27, 110.04 104.97 08/29/2016 19:46:12 -81.26, 110.07 104.97 0.88 14
6 08/
